{"data":{"norad_id":61897,"epoch":"2026-05-25T04:32:29.472000Z","epoch_age_seconds":61888,"freshness":"FRESH","line1":"1 61897U 24205D   26145.18923000  .00006065  00000+0  30338-3 0  9991","line2":"2 61897  97.4101 217.1539 0013518 133.8093 226.4261 15.17709029 84790","mean_motion":15.17709029,"eccentricity":0.0013518,"inclination_deg":97.4101,"raan_deg":217.1539,"arg_perigee_deg":133.8093,"mean_anomaly_deg":226.4261,"bstar":0.00030338,"rev_number":8479,"period_min":94.879846695568,"perigee_km":503.45129237047,"apogee_km":522.08153884491,"semimajor_km":6890.9034156077,"source":"CELESTRAK","updated_at":"2026-05-25T13:38:02.602626Z"}}